Regional Weather Roundup
Issued by NWS

Home | Current Version | Previous Version | Text Only | Print | Product List | Glossary On
Versions: 1 2 3 4 5 6 7 8 9 10 11 12 13 14 15 16 17 18 19 20 21 22 23 24 25 26 27 28 29 30 31 32 33 34 35 36 37 38 39 40 41 42 43 44 45 46 47 48 49 50
042
ASUS43 KMKX 222011
RWRWI

WISCONSIN REGIONAL WEATHER ROUNDUP
NATIONAL WEATHER SERVICE MILWAUKEE/SULLIVAN WI
300 PM CDT TUE MAY 22 2018

NOTE: "FAIR" INDICATES FEW OR NO CLOUDS BELOW 12,000 FEET WITH NO
SIGNIFICANT WEATHER AND/OR OBSTRUCTIONS TO VISIBILITY.

WIZ001-002-006>008-014>016-023>028-222100-
NORTHWEST WISCONSIN

CITY           SKY/WX    TMP DP  RH WIND       PRES   REMARKS
SUPERIOR ARPT  CLOUDY    78  56  46 W12       30.01S
ASHLAND        FAIR      79  50  36 VRB7      30.00F
HAYWARD        CLOUDY    72  56  57 SW8       30.04F
SIREN          PTSUNNY   73  54  52 SE5       30.04F
CUMBERLAND     PTSUNNY   68  54  60 NE3       30.05F
RICE LAKE      PTSUNNY   70  55  57 CALM      30.06F
CHETEK         FAIR      68  57  67 CALM      30.05F
LADYSMITH      FAIR      70  56  60 CALM      30.06F
EAU CLAIRE     CLOUDY    66  56  70 CALM      30.05F
MENOMONIE      CLOUDY    69  55  61 CALM      30.06S
NEW RICHMOND   FAIR      71  53  53 SW3       30.05F
OSCEOLA        CLOUDY    70  56  61 S3        30.07F
$$

WIZ003>005-009-010-017-018-222100-
NORTH CENTRAL WISCONSIN

CITY           SKY/WX    TMP DP  RH WIND       PRES   REMARKS
MANITOWISH WTR PTSUNNY   73  51  45 NW5       30.03F
ARBOR VITAE    PTSUNNY   74  50  43 NW5       30.03F
WOODRUFF       PTSUNNY   74  50  43 NW5       30.03F
RHINELANDER    FAIR      77  49  37 MISG      30.03F
EAGLE RIVER    PTSUNNY   74  39  28 W5        30.02F
LAND O LAKES   PTSUNNY   76  39  26 W6        30.04S
PHILLIPS       CLOUDY    70  56  61 SW6       30.04S
TOMAHAWK       CLOUDY    72  51  48 CALM      30.04F
MEDFORD        FAIR      69  55  60 W8        30.05F
MERRILL        CLOUDY    72  57  60 SW5       30.05S
$$

WIZ029-030-035-036-043>047-222100-
CENTRAL WISCONSIN

CITY           SKY/WX    TMP DP  RH WIND       PRES   REMARKS
WAUSAU         PTSUNNY   69  57  65 SW7       30.03F
MOSINEE        MOSUNNY   70  57  64 W5        30.06F
MARSHFIELD     FAIR      67  56  67 SW5       30.05F
STEVENS POINT  FAIR      68  55  63 CALM      30.06F
WAUPACA        CLOUDY    73  57  56 W3        30.05F
WAUTOMA        FAIR      70  58  65 W6        30.05F
WISC RAPIDS    CLOUDY    68  57  68 S6        30.07F
CAMP DOUGLAS   CLOUDY    64  59  82 CALM      30.06F
$$

WIZ011>013-019>022-031-037>040-048>050-222100-
NORTHEAST WISCONSIN

CITY           SKY/WX    TMP DP  RH WIND       PRES   REMARKS
ANTIGO         PTSUNNY   72  56  55 W12       30.04F
SHAWANO        FAIR      75  57  54 SW3       30.03F
OCONTO         FAIR      70  56  60 SE8       30.03F
STURGEON BAY   FAIR      65  54  67 NW6       30.04
GREEN BAY      FAIR      72  58  61 CALM      30.04F
MANITOWOC      FAIR      63  55  75 SE7       30.05F
APPLETON       PTSUNNY   70  55  60 W6        30.04F
CLINTONVILLE   CLOUDY    72  55  54 SW9       30.03F
OSHKOSH        FAIR      66  58  75 E5        30.05F
$$

WIZ032>034-041-042-053>061-222100-
SOUTHWEST WISCONSIN

CITY           SKY/WX    TMP DP  RH WIND       PRES   REMARKS
LA CROSSE      CLOUDY    66  57  72 W6        30.07S
SPARTA         CLOUDY    62  56  80 E3        30.08S
VIROQUA        CLOUDY    63  59  87 SW3       30.08S
BOSCOBEL       CLOUDY    69  59  70 NE5       30.07F
PRAIRIE DU CHI CLOUDY    69  56  65 CALM      30.06S
PLATTEVILLE    CLOUDY    67  62  83 N3        30.07F
$$

WIZ056-057-062-063-064-067-068-222100-
SOUTH CENTRAL WISCONSIN

CITY           SKY/WX    TMP DP  RH WIND       PRES   REMARKS
REEDSBURG      CLOUDY    63  58  84 CALM      30.07S
BARABOO/DELLS  CLOUDY    64  56  75 CALM      30.07F
LONE ROCK      CLOUDY    65  60  84 S3        30.07F
MINERAL POINT  CLOUDY    68  61  77 N3        30.08S
MADISON        CLOUDY    66  57  72 VRB3      30.06F HAZE
MIDDLETON      CLOUDY    66  58  74 CALM      30.08S
WATERTOWN      CLOUDY    64  58  82 CALM      30.06F
MONROE         CLOUDY    64  59  82 N6        30.07F
JANESVILLE     CLOUDY    64  57  77 NW7       30.07F
$$

WIZ051-052-058>065-066-070>072-222100-
SOUTHEAST WISCONSIN

CITY           SKY/WX    TMP DP  RH WIND       PRES   REMARKS
MILWAUKEE      FAIR      65  57  75 E3        30.06F
WAUKESHA       PTSUNNY   61  55  82 NW6       30.08F
MILWAUKEE/TIMM CLOUDY    64  54  68 W3        30.07F
RACINE         CLOUDY    62  55  77 E5        30.08F
BURLINGTON     CLOUDY    63  56  77 NW3       30.07F
KENOSHA        CLOUDY    62  56  80 CALM      30.07F
FOND DU LAC    PTSUNNY   67  58  72 VRB3      30.06F
SHEBOYGAN      CLOUDY    67  57  70 CALM      30.05F
WEST BEND      CLOUDY    64  57  77 NW6       30.06S
JUNEAU         CLOUDY    63  56  80 CALM      30.07F
$$

LSZ147-162-222100-
LAKE SUPERIOR

STATION/POSITION TIME  TEMP    WIND        PRES    WAVE
                       AIR SEA DIR/SP/G            HT/PER
                 (UTC) (F)     (DEG/KT/KT) (MB)    (FT/S)
W MID LAKE BUOY  1950   43 36  220/ 10/ 10 1016.6F   0
DEVILS ISLAND    2000   65     220/  8/  9 1016.4F
SAXON HARBOR     1940   65      50/  3/  6 1016.3S
$$

LMZ867-665-643>646-222100-
LAKE MICHIGAN

STATION/POSITION TIME  TEMP    WIND        PRES    WAVE
                       AIR SEA DIR/SP/G            HT/PER
                 (UTC) (F)     (DEG/KT/KT) (MB)    (FT/S)
N MID LAKE BUOY  1950   41 38  180/  6/  6 1016.7F   0
NORTHPORT PIER   1940   56     150/  4/  6 1016.6F
KEWAUNEE LAKESHO 1942   53     150/  4/  5 1016.8F
SHEBOYGAN LAKESH 2000   50     160/  5/  6 1018.0F
PORT WASHINGTON  1930   52     130/  3/  4 1019.0F
ATWATER BUOY     1907   49 47  120/  2/  2 1018.5
MILWAUKEE LAKESH 1950   49     120/  3/  3   N/A
KENOSHA   LAKESH 2000   50                 1018.6
$$

TC  - TEMPERATURE IN CELSIUS
VSB - VISIBILITY IN STATUTE MILES
WCI - WIND CHILL INDEX
HX  - HEAT INDEX





USA.gov is the U.S. government's official web portal to all federal, state and local government web resources and services.